Tracking 31023 objects as of 19-Jul-2025
HD Live streaming from Space Station
objects crossing your sky now

COSMOS 839 DEB

Track COSMOS 839 DEB now!
10-day predictions


NORAD ID: 12543
Int'l Code: 1976-067BA
Perigee: 989.2 km
Apogee: 2,002.6 km
Inclination: 66.0 °
Period: 115.7 minutes
Semi major axis: 7866 km
RCS: 0.007 m2 (small)
Launch date: July 8, 1976
Source: Commonwealth of Independent States (former USSR) (CIS)
Launch site: PLESETSK MISSILE AND SPACE COMPLEX (PKMTR)

Note: This is SATELLITE DEBRIS
Your satellite tracking list
Your tracking list is empty




NASA's NSSDC Master Catalog

Two Line Element Set (TLE):
1 12543U 76067BA  25198.23819949  .00000323  00000-0  12864-2 0  9992
2 12543  66.0268 131.9622 0644058 218.0526 298.4929 12.44225779216207
Source of the keplerian elements: AFSPC